Find Starlink 2088

NORAD ID: 47371 Int'l Des: 2021-005 Owner: SPXS Country: US Constellation: starlink operational
LEOCIRCULARSTARLINK_TYPE

リアルタイム位置

3D地球を読み込み中...

Starlink 2088について

説明を読み込み中...

次回通過

Passes for default location (London). Set your location on the main map for personalized predictions.

高度履歴

Loading altitude history...

軌道要素

1 47371U 21005Y 26123.16670139 .00022732 00000-0 74218-3 0 9998
2 47371 53.1585 173.0768 0001183 93.6610 297.4598 15.31695335 5843
Epoch: May 3, 2026 • Age: 5 hours

現在のステータス

高度 472.4 km
速度 7.63 km/s
衛星直下点 -4.18°S, 179.69°E
打ち上げ日 Jan 20, 2021
運用期間 5.2 years
タイプ internet

技術仕様

分類 Payload
質量 260.00 kg
乾燥質量 248.00 kg
総質量 260.00 kg
長さ 0.20 m
直径 2.80 m
スパン 9.00 m
形状 Box + pan
製造者 SPXS
バスタイプ Starlink
フェーズステータス In Orbit
所有者/国 SPXS/US

Most Searched